Regional Weather Roundup
Issued by NWS

Home | Current Version | Previous Version | Text Only | Print | Product List | Glossary On
Versions: 1 2 3 4 5 6 7 8 9 10 11 12 13 14 15 16 17 18 19 20 21 22 23 24 25 26 27 28 29 30 31 32 33 34 35 36 37 38 39 40 41 42 43 44 45 46 47 48 49 50
000
ASUS43 KBIS 192020
RWRND

NORTH DAKOTA REGIONAL WEATHER ROUNDUP
NATIONAL WEATHER SERVICE BISMARCK ND
300 PM CDT SUN OCT 19 2014

NOTE: "FAIR" INDICATES FEW OR NO CLOUDS BELOW 12,000 FEET WITH NO
SIGNIFICANT WEATHER AND/OR OBSTRUCTIONS TO VISIBILITY.


NDZ001>003-009>011-017-192100-
NORTHWEST NORTH DAKOTA

CITY           SKY/WX    TMP DP  RH WIND       PRES   REMARKS
WILLISTON      SUNNY     67  37  33 CALM      29.99F
MINOT          SUNNY     69  35  28 NW14      29.93F
MINOT AFB      SUNNY     67  38  34 NW13      29.92F
$$

NDZ018>021-031>035-040>046-192100-
SOUTHWEST NORTH DAKOTA

CITY           SKY/WX    TMP DP  RH WIND       PRES   REMARKS
BISMARCK       SUNNY     72  40  31 NW15G22   29.94F
DICKINSON      SUNNY     69  40  34 N8        29.99S
GARRISON         N/A     70  39  32 NW16G23   29.95S
HETTINGER ARPT SUNNY     70  37  29 NW13G24   30.01S
$$

NDZ004>008-012>016-024-026-027-054-192100-
NORTHEAST NORTH DAKOTA

CITY           SKY/WX    TMP DP  RH WIND       PRES   REMARKS
GRAND FORKS    SUNNY     66  43  43 N17       29.82R
GRND FRKS AFB  SUNNY     67  43  40 N16       29.83R
DEVILS LAKE    SUNNY     64  43  45 NW16G22   29.87R
$$

NDZ022-023-025-028>030-036>039-047>053-192100-
SOUTHEAST NORTH DAKOTA

CITY           SKY/WX    TMP DP  RH WIND       PRES   REMARKS
FARGO          SUNNY     70  40  33 NW18      29.80F
JAMESTOWN      SUNNY     69  39  33 NW16G25   29.87S
$$



USA.gov is the U.S. government's official web portal to all federal, state and local government web resources and services.